Time,TemperatureF,DewpointF,PressureIn,WindDirection,WindDirectionDegrees,WindSpeedMPH,WindSpeedGustMPH,Humidity,HourlyPrecipIn,Conditions,Clouds,dailyrainin,SoftwareType,DateUTC
2013-01-13 00:04:00,42.0,42.0,30.13,South,180,0.0,0.0,100,0.00,,,0.00,TxWx,2013-01-13 05:04:00,
2013-01-13 00:09:00,42.0,42.0,30.13,South,180,3.0,3.0,100,0.00,,,0.00,TxWx,2013-01-13 05:09:00,
2013-01-13 00:14:00,42.0,42.0,30.13,SE,135,1.0,3.0,100,0.00,,,0.00,TxWx,2013-01-13 05:14:00,
2013-01-13 00:19:00,42.0,42.0,30.13,SSE,157,3.0,3.0,100,0.00,,,0.00,TxWx,2013-01-13 05:19:00,
2013-01-13 00:23:00,42.0,42.0,30.13,South,180,3.0,4.0,100,0.00,,,0.00,TxWx,2013-01-13 05:23:00,
2013-01-13 00:28:00,42.0,42.0,30.13,SSE,157,2.0,2.0,100,0.00,,,0.00,TxWx,2013-01-13 05:28:00,
2013-01-13 00:33:00,42.0,42.0,30.13,ESE,112,2.0,2.0,100,0.00,,,0.00,TxWx,2013-01-13 05:33:00,
2013-01-13 00:38:00,42.0,42.0,30.13,SSE,157,3.0,3.0,100,0.00,,,0.00,TxWx,2013-01-13 05:38:00,
2013-01-13 00:44:00,41.0,41.0,30.13,SE,135,3.0,3.0,100,0.00,,,0.00,TxWx,2013-01-13 05:44:00,
2013-01-13 00:49:00,41.0,41.0,30.13,South,180,3.0,3.0,100,0.00,,,0.00,TxWx,2013-01-13 05:49:00,
2013-01-13 00:54:00,41.0,41.0,30.13,South,180,4.0,4.0,100,0.00,,,0.00,TxWx,2013-01-13 05:54:00,
2013-01-13 00:59:00,41.0,41.0,30.13,SE,135,0.0,0.0,100,0.00,,,0.00,TxWx,2013-01-13 05:59:00,
2013-01-13 01:04:00,41.0,41.0,30.13,South,180,4.0,5.0,100,0.00,,,0.00,TxWx,2013-01-13 06:04:00,
2013-01-13 01:09:00,41.0,41.0,30.13,SSE,157,3.0,3.0,100,0.00,,,0.00,TxWx,2013-01-13 06:09:00,
2013-01-13 01:14:00,41.0,41.0,30.13,SSE,157,4.0,5.0,100,0.00,,,0.00,TxWx,2013-01-13 06:14:00,
2013-01-13 01:19:00,41.0,41.0,30.14,SSE,157,2.0,2.0,100,0.00,,,0.00,TxWx,2013-01-13 06:19:00,
2013-01-13 01:24:00,41.0,41.0,30.14,South,180,3.0,4.0,100,0.00,,,0.00,TxWx,2013-01-13 06:24:00,
2013-01-13 01:29:00,42.0,42.0,30.15,SSW,202,6.0,6.0,100,0.00,,,0.00,TxWx,2013-01-13 06:29:00,
2013-01-13 01:34:00,42.0,42.0,30.15,SSE,157,5.0,5.0,100,0.00,,,0.00,TxWx,2013-01-13 06:34:00,
2013-01-13 01:39:00,42.0,42.0,30.15,South,180,3.0,3.0,100,0.00,,,0.00,TxWx,2013-01-13 06:39:00,
2013-01-13 01:44:00,42.0,42.0,30.15,SSE,157,2.0,4.0,100,0.00,,,0.00,TxWx,2013-01-13 06:44:00,
2013-01-13 01:49:00,41.0,41.0,30.15,SSE,157,4.0,5.0,100,0.00,,,0.00,TxWx,2013-01-13 06:49:00,
2013-01-13 01:54:00,41.0,41.0,30.15,SSE,157,3.0,4.0,100,0.00,,,0.00,TxWx,2013-01-13 06:54:00,
2013-01-13 02:00:00,41.0,41.0,30.15,SSE,157,2.0,2.0,100,0.00,,,0.00,TxWx,2013-01-13 07:00:00,
2013-01-13 02:05:00,41.0,41.0,30.14,SE,135,3.0,3.0,100,0.00,,,0.00,TxWx,2013-01-13 07:05:00,
2013-01-13 02:10:00,41.0,41.0,30.14,South,180,3.0,3.0,100,0.00,,,0.00,TxWx,2013-01-13 07:10:00,
2013-01-13 02:15:00,41.0,41.0,30.14,South,180,3.0,3.0,100,0.00,,,0.00,TxWx,2013-01-13 07:15:00,
2013-01-13 02:20:00,41.0,41.0,30.14,South,180,3.0,3.0,100,0.00,,,0.00,TxWx,2013-01-13 07:20:00,
2013-01-13 02:25:00,41.0,41.0,30.14,SSE,157,1.0,2.0,100,0.00,,,0.00,TxWx,2013-01-13 07:25:00,
2013-01-13 02:30:00,41.0,41.0,30.13,South,180,3.0,3.0,100,0.00,,,0.00,TxWx,2013-01-13 07:30:00,
2013-01-13 02:35:00,41.0,41.0,30.12,SSE,157,0.0,0.0,100,0.00,,,0.00,TxWx,2013-01-13 07:35:00,
2013-01-13 02:40:00,41.0,41.0,30.12,SSE,157,0.0,0.0,100,0.00,,,0.00,TxWx,2013-01-13 07:40:00,
2013-01-13 02:45:00,41.0,41.0,30.12,SSE,157,0.0,0.0,100,0.00,,,0.00,TxWx,2013-01-13 07:45:00,
2013-01-13 02:50:00,41.0,41.0,30.12,South,180,3.0,3.0,100,0.00,,,0.00,TxWx,2013-01-13 07:50:00,
2013-01-13 02:56:00,41.0,41.0,30.12,SSE,157,0.0,0.0,100,0.00,,,0.00,TxWx,2013-01-13 07:56:00,
2013-01-13 03:01:00,41.0,41.0,30.11,SSW,202,0.0,3.0,100,0.00,,,0.00,TxWx,2013-01-13 08:01:00,
2013-01-13 03:06:00,42.0,42.0,30.10,SE,135,0.0,0.0,100,0.00,,,0.00,TxWx,2013-01-13 08:06:00,
2013-01-13 03:10:00,42.0,42.0,30.10,SSE,157,0.0,0.0,100,0.00,,,0.00,TxWx,2013-01-13 08:10:00,
2013-01-13 03:15:00,42.0,42.0,30.10,SSE,157,1.0,2.0,100,0.00,,,0.00,TxWx,2013-01-13 08:15:00,
2013-01-13 03:20:00,42.0,42.0,30.10,SSE,157,1.0,1.0,100,0.00,,,0.00,TxWx,2013-01-13 08:20:00,
2013-01-13 03:25:00,42.0,42.0,30.11,SSW,202,3.0,4.0,100,0.00,,,0.00,TxWx,2013-01-13 08:25:00,
2013-01-13 03:30:00,42.0,42.0,30.10,South,180,2.0,3.0,100,0.00,,,0.00,TxWx,2013-01-13 08:30:00,
2013-01-13 03:36:00,42.0,42.0,30.11,SW,225,3.0,3.0,100,0.00,,,0.00,TxWx,2013-01-13 08:36:00,
2013-01-13 03:41:00,42.0,42.0,30.11,South,180,3.0,3.0,100,0.00,,,0.00,TxWx,2013-01-13 08:41:00,
2013-01-13 03:46:00,42.0,42.0,30.10,South,180,2.0,3.0,100,0.00,,,0.00,TxWx,2013-01-13 08:46:00,
2013-01-13 03:51:00,42.0,42.0,30.10,SSW,202,2.0,3.0,100,0.00,,,0.00,TxWx,2013-01-13 08:51:00,
2013-01-13 03:56:00,42.0,42.0,30.10,SSW,202,3.0,3.0,100,0.00,,,0.00,TxWx,2013-01-13 08:56:00,
2013-01-13 04:01:00,42.0,42.0,30.10,SSE,157,1.0,2.0,100,0.00,,,0.00,TxWx,2013-01-13 09:01:00,
2013-01-13 04:06:00,42.0,42.0,30.10,ESE,112,0.0,0.0,100,0.00,,,0.00,TxWx,2013-01-13 09:06:00,
2013-01-13 04:11:00,42.0,42.0,30.10,ESE,112,0.0,0.0,100,0.00,,,0.00,TxWx,2013-01-13 09:11:00,
2013-01-13 04:16:00,41.0,41.0,30.10,ESE,112,0.0,0.0,100,0.00,,,0.00,TxWx,2013-01-13 09:16:00,
2013-01-13 04:21:00,41.0,41.0,30.10,South,180,0.0,0.0,100,0.00,,,0.00,TxWx,2013-01-13 09:21:00,
2013-01-13 04:26:00,41.0,41.0,30.10,East,90,0.0,0.0,100,0.00,,,0.00,TxWx,2013-01-13 09:26:00,
2013-01-13 04:31:00,41.0,41.0,30.09,SE,135,0.0,0.0,100,0.00,,,0.00,TxWx,2013-01-13 09:31:00,
2013-01-13 04:37:00,41.0,41.0,30.09,SE,135,0.0,0.0,100,0.00,,,0.00,TxWx,2013-01-13 09:37:00,
2013-01-13 04:42:00,41.0,41.0,30.09,SE,135,0.0,0.0,100,0.00,,,0.00,TxWx,2013-01-13 09:42:00,
2013-01-13 04:47:00,41.0,41.0,30.09,SE,135,0.0,1.0,100,0.00,,,0.00,TxWx,2013-01-13 09:47:00,
2013-01-13 04:52:00,41.0,41.0,30.09,SSE,157,1.0,1.0,100,0.00,,,0.00,TxWx,2013-01-13 09:52:00,
2013-01-13 04:57:00,41.0,41.0,30.10,South,180,5.0,6.0,100,0.00,,,0.00,TxWx,2013-01-13 09:57:00,
2013-01-13 05:02:00,41.0,41.0,30.11,South,180,5.0,5.0,100,0.00,,,0.00,TxWx,2013-01-13 10:02:00,
2013-01-13 05:07:00,41.0,41.0,30.12,South,180,4.0,5.0,100,0.00,,,0.00,TxWx,2013-01-13 10:07:00,
2013-01-13 05:12:00,41.0,41.0,30.11,South,180,5.0,5.0,100,0.00,,,0.00,TxWx,2013-01-13 10:12:00,
2013-01-13 05:17:00,41.0,41.0,30.10,SE,135,2.0,2.0,100,0.00,,,0.00,TxWx,2013-01-13 10:17:00,
2013-01-13 05:22:00,40.0,40.0,30.11,SSE,157,3.0,3.0,100,0.00,,,0.00,TxWx,2013-01-13 10:22:00,
2013-01-13 05:27:00,40.0,40.0,30.10,SSE,157,3.0,4.0,100,0.00,,,0.01,TxWx,2013-01-13 10:27:00,
2013-01-13 05:32:00,40.0,40.0,30.09,ESE,112,4.0,4.0,100,0.60,,,0.01,TxWx,2013-01-13 10:32:00,
2013-01-13 05:37:00,40.0,40.0,30.09,SE,135,2.0,3.0,100,0.60,,,0.01,TxWx,2013-01-13 10:37:00,
2013-01-13 05:43:00,40.0,40.0,30.07,ESE,112,3.0,4.0,100,0.00,,,0.01,TxWx,2013-01-13 10:43:00,
2013-01-13 05:48:00,40.0,40.0,30.08,South,180,2.0,2.0,100,0.00,,,0.01,TxWx,2013-01-13 10:48:00,
2013-01-13 05:53:00,40.0,40.0,30.08,South,180,0.0,0.0,100,0.00,,,0.01,TxWx,2013-01-13 10:53:00,
2013-01-13 05:58:00,40.0,40.0,30.09,South,180,3.0,3.0,100,0.00,,,0.01,TxWx,2013-01-13 10:58:00,
2013-01-13 06:03:00,40.0,40.0,30.09,SSW,202,3.0,5.0,100,0.00,,,0.01,TxWx,2013-01-13 11:03:00,
2013-01-13 06:08:00,40.0,40.0,30.09,SSW,202,3.0,4.0,100,0.00,,,0.01,TxWx,2013-01-13 11:08:00,
2013-01-13 06:13:00,40.0,40.0,30.09,SE,135,2.0,3.0,100,0.00,,,0.01,TxWx,2013-01-13 11:13:00,
2013-01-13 06:18:00,40.0,40.0,30.09,South,180,4.0,5.0,100,0.00,,,0.01,TxWx,2013-01-13 11:18:00,
2013-01-13 06:23:00,40.0,40.0,30.09,SSE,157,3.0,3.0,100,0.00,,,0.01,TxWx,2013-01-13 11:23:00,
2013-01-13 06:28:00,40.0,40.0,30.09,South,180,4.0,4.0,100,0.00,,,0.01,TxWx,2013-01-13 11:28:00,
2013-01-13 06:33:00,40.0,40.0,30.10,South,180,2.0,3.0,100,0.00,,,0.01,TxWx,2013-01-13 11:33:00,
2013-01-13 06:38:00,40.0,40.0,30.10,South,180,3.0,4.0,100,0.00,,,0.01,TxWx,2013-01-13 11:38:00,
2013-01-13 06:43:00,40.0,40.0,30.10,SE,135,1.0,4.0,100,0.00,,,0.01,TxWx,2013-01-13 11:43:00,
2013-01-13 06:48:00,40.0,40.0,30.09,ESE,112,1.0,3.0,100,0.00,,,0.01,TxWx,2013-01-13 11:48:00,
2013-01-13 06:54:00,40.0,40.0,30.08,SE,135,3.0,4.0,100,0.00,,,0.01,TxWx,2013-01-13 11:54:00,
2013-01-13 06:59:00,40.0,40.0,30.07,ESE,112,3.0,3.0,100,0.00,,,0.01,TxWx,2013-01-13 11:59:00,
2013-01-13 07:04:00,40.0,40.0,30.08,South,180,3.0,3.0,100,0.00,,,0.01,TxWx,2013-01-13 12:04:00,
2013-01-13 07:09:00,40.0,40.0,30.08,SSE,157,1.0,3.0,100,0.00,,,0.01,TxWx,2013-01-13 12:09:00,
2013-01-13 07:14:00,40.0,40.0,30.09,South,180,5.0,5.0,100,0.00,,,0.01,TxWx,2013-01-13 12:14:00,
2013-01-13 07:19:00,40.0,40.0,30.09,South,180,3.0,5.0,100,0.00,,,0.01,TxWx,2013-01-13 12:19:00,
2013-01-13 07:24:00,40.0,40.0,30.09,South,180,5.0,6.0,100,0.00,,,0.01,TxWx,2013-01-13 12:24:00,
2013-01-13 07:29:00,40.0,40.0,30.09,South,180,6.0,6.0,100,0.00,,,0.01,TxWx,2013-01-13 12:29:00,
2013-01-13 07:34:00,40.0,40.0,30.08,South,180,4.0,4.0,100,0.00,,,0.01,TxWx,2013-01-13 12:34:00,
2013-01-13 07:39:00,40.0,40.0,30.09,South,180,7.0,7.0,100,0.00,,,0.01,TxWx,2013-01-13 12:39:00,
2013-01-13 07:44:00,40.0,40.0,30.09,South,180,5.0,6.0,100,0.00,,,0.01,TxWx,2013-01-13 12:44:00,
2013-01-13 07:49:00,40.0,40.0,30.09,South,180,5.0,5.0,100,0.00,,,0.01,TxWx,2013-01-13 12:49:00,
2013-01-13 07:54:00,40.0,40.0,30.09,SSE,157,4.0,4.0,100,0.00,,,0.01,TxWx,2013-01-13 12:54:00,
2013-01-13 08:00:00,40.0,40.0,30.10,South,180,3.0,3.0,100,0.00,,,0.01,TxWx,2013-01-13 13:00:00,
2013-01-13 08:05:00,40.0,40.0,30.10,SSE,157,6.0,6.0,100,0.00,,,0.02,TxWx,2013-01-13 13:05:00,
2013-01-13 08:10:00,40.0,40.0,30.10,SE,135,4.0,4.0,100,0.60,,,0.02,TxWx,2013-01-13 13:10:00,
2013-01-13 08:15:00,40.0,40.0,30.09,SE,135,3.0,5.0,100,0.60,,,0.02,TxWx,2013-01-13 13:15:00,
2013-01-13 08:20:00,39.0,39.0,30.09,South,180,3.0,5.0,100,0.00,,,0.02,TxWx,2013-01-13 13:20:00,
2013-01-13 08:25:00,40.0,40.0,30.09,South,180,3.0,4.0,100,0.00,,,0.02,TxWx,2013-01-13 13:25:00,
2013-01-13 08:30:00,40.0,40.0,30.10,South,180,3.0,5.0,100,0.00,,,0.02,TxWx,2013-01-13 13:30:00,
2013-01-13 08:35:00,40.0,40.0,30.10,South,180,5.0,5.0,100,0.00,,,0.02,TxWx,2013-01-13 13:35:00,
2013-01-13 08:40:00,40.0,40.0,30.10,SSE,157,2.0,3.0,100,0.00,,,0.02,TxWx,2013-01-13 13:40:00,
2013-01-13 08:45:00,40.0,40.0,30.10,South,180,2.0,3.0,100,0.00,,,0.02,TxWx,2013-01-13 13:45:00,
2013-01-13 08:50:00,40.0,40.0,30.11,South,180,6.0,6.0,100,0.00,,,0.02,TxWx,2013-01-13 13:50:00,
2013-01-13 08:55:00,41.0,41.0,30.11,SE,135,2.0,3.0,100,0.00,,,0.02,TxWx,2013-01-13 13:55:00,
2013-01-13 09:00:00,41.0,41.0,30.10,South,180,4.0,4.0,100,0.00,,,0.02,TxWx,2013-01-13 14:00:00,
2013-01-13 09:05:00,41.0,41.0,30.10,ESE,112,3.0,4.0,100,0.00,,,0.02,TxWx,2013-01-13 14:05:00,
2013-01-13 09:11:00,41.0,41.0,30.10,ESE,112,5.0,6.0,100,0.00,,,0.02,TxWx,2013-01-13 14:11:00,
2013-01-13 09:16:00,41.0,41.0,30.10,SSE,157,6.0,6.0,100,0.00,,,0.02,TxWx,2013-01-13 14:16:00,
2013-01-13 09:21:00,41.0,41.0,30.10,SSE,157,5.0,6.0,100,0.00,,,0.02,TxWx,2013-01-13 14:21:00,
2013-01-13 09:26:00,41.0,41.0,30.10,SSE,157,5.0,5.0,100,0.00,,,0.02,TxWx,2013-01-13 14:26:00,
2013-01-13 09:31:00,41.0,41.0,30.10,SSE,157,5.0,5.0,100,0.00,,,0.02,TxWx,2013-01-13 14:31:00,
2013-01-13 09:36:00,41.0,41.0,30.10,South,180,3.0,5.0,100,0.00,,,0.02,TxWx,2013-01-13 14:36:00,
2013-01-13 09:41:00,41.0,41.0,30.10,SSE,157,3.0,4.0,100,0.00,,,0.02,TxWx,2013-01-13 14:41:00,
2013-01-13 09:46:00,41.0,41.0,30.10,SSE,157,5.0,6.0,100,0.00,,,0.02,TxWx,2013-01-13 14:46:00,
2013-01-13 09:51:00,41.0,41.0,30.09,SSE,157,5.0,6.0,100,0.00,,,0.02,TxWx,2013-01-13 14:51:00,
2013-01-13 09:56:00,41.0,41.0,30.09,ESE,112,1.0,5.0,100,0.00,,,0.02,TxWx,2013-01-13 14:56:00,
2013-01-13 10:01:00,42.0,42.0,30.09,South,180,5.0,6.0,100,0.00,,,0.02,TxWx,2013-01-13 15:01:00,
2013-01-13 10:06:00,41.0,41.0,30.09,SSE,157,8.0,10.0,100,0.00,,,0.02,TxWx,2013-01-13 15:06:00,
2013-01-13 10:12:00,41.0,41.0,30.08,South,180,5.0,5.0,100,0.00,,,0.02,TxWx,2013-01-13 15:12:00,
2013-01-13 10:17:00,42.0,42.0,30.08,SSE,157,7.0,7.0,100,0.00,,,0.02,TxWx,2013-01-13 15:17:00,
2013-01-13 10:22:00,42.0,42.0,30.08,SSE,157,3.0,6.0,100,0.00,,,0.02,TxWx,2013-01-13 15:22:00,
2013-01-13 10:27:00,42.0,42.0,30.08,ESE,112,3.0,4.0,100,0.00,,,0.02,TxWx,2013-01-13 15:27:00,
2013-01-13 10:32:00,43.0,43.0,30.08,SE,135,5.0,6.0,100,0.00,,,0.02,TxWx,2013-01-13 15:32:00,
2013-01-13 10:37:00,43.0,43.0,30.08,South,180,5.0,5.0,100,0.00,,,0.02,TxWx,2013-01-13 15:37:00,
2013-01-13 10:42:00,43.0,43.0,30.07,SE,135,3.0,6.0,100,0.00,,,0.02,TxWx,2013-01-13 15:42:00,
2013-01-13 10:47:00,43.0,43.0,30.07,South,180,5.0,8.0,100,0.00,,,0.02,TxWx,2013-01-13 15:47:00,
2013-01-13 10:52:00,43.0,43.0,30.06,SSE,157,3.0,6.0,100,0.00,,,0.02,TxWx,2013-01-13 15:52:00,
2013-01-13 10:57:00,44.0,44.0,30.05,South,180,6.0,7.0,100,0.00,,,0.02,TxWx,2013-01-13 15:57:00,
2013-01-13 11:02:00,44.0,44.0,30.06,South,180,9.0,9.0,100,0.00,,,0.02,TxWx,2013-01-13 16:02:00,
2013-01-13 11:07:00,44.0,44.0,30.06,SSE,157,7.0,10.0,100,0.00,,,0.02,TxWx,2013-01-13 16:07:00,
2013-01-13 11:12:00,44.0,44.0,30.06,SE,135,3.0,4.0,100,0.00,,,0.02,TxWx,2013-01-13 16:12:00,
2013-01-13 11:17:00,44.0,44.0,30.05,SSW,202,5.0,9.0,100,0.00,,,0.02,TxWx,2013-01-13 16:17:00,
2013-01-13 11:22:00,44.0,44.0,30.05,South,180,10.0,11.0,100,0.00,,,0.02,TxWx,2013-01-13 16:22:00,
2013-01-13 11:27:00,44.0,44.0,30.05,SSE,157,7.0,7.0,100,0.00,,,0.02,TxWx,2013-01-13 16:27:00,
2013-01-13 11:33:00,44.0,44.0,30.04,SSE,157,6.0,6.0,100,0.00,,,0.02,TxWx,2013-01-13 16:33:00,
2013-01-13 11:38:00,44.0,44.0,30.03,South,180,10.0,10.0,100,0.00,,,0.02,TxWx,2013-01-13 16:38:00,
2013-01-13 11:43:00,44.0,44.0,30.02,South,180,7.0,7.0,100,0.00,,,0.02,TxWx,2013-01-13 16:43:00,
2013-01-13 11:48:00,45.0,45.0,30.02,ESE,112,8.0,10.0,100,0.00,,,0.02,TxWx,2013-01-13 16:48:00,
2013-01-13 11:53:00,45.0,45.0,30.03,SW,225,8.0,8.0,100,0.00,,,0.02,TxWx,2013-01-13 16:53:00,
2013-01-13 11:58:00,45.0,45.0,30.04,SSE,157,3.0,3.0,100,0.00,,,0.02,TxWx,2013-01-13 16:58:00,
2013-01-13 12:03:00,45.0,45.0,30.03,South,180,4.0,5.0,100,0.00,,,0.02,TxWx,2013-01-13 17:03:00,
2013-01-13 12:08:00,45.0,45.0,30.03,SSW,202,3.0,5.0,100,0.00,,,0.02,TxWx,2013-01-13 17:08:00,
2013-01-13 12:13:00,45.0,45.0,30.03,South,180,8.0,10.0,100,0.00,,,0.02,TxWx,2013-01-13 17:13:00,
2013-01-13 12:18:00,45.0,45.0,30.03,SSE,157,8.0,10.0,100,0.00,,,0.02,TxWx,2013-01-13 17:18:00,
2013-01-13 12:23:00,45.0,45.0,30.02,South,180,3.0,5.0,100,0.00,,,0.02,TxWx,2013-01-13 17:23:00,
2013-01-13 12:28:00,46.0,46.0,30.02,SSE,157,8.0,8.0,100,0.00,,,0.02,TxWx,2013-01-13 17:28:00,
2013-01-13 12:33:00,46.0,46.0,30.02,SE,135,4.0,4.0,100,0.00,,,0.02,TxWx,2013-01-13 17:33:00,
2013-01-13 12:39:00,46.0,46.0,30.01,South,180,5.0,5.0,100,0.00,,,0.02,TxWx,2013-01-13 17:39:00,
2013-01-13 12:44:00,46.0,46.0,30.01,SE,135,9.0,9.0,100,0.00,,,0.02,TxWx,2013-01-13 17:44:00,
2013-01-13 12:49:00,46.0,46.0,30.00,ESE,112,3.0,4.0,100,0.00,,,0.02,TxWx,2013-01-13 17:49:00,
2013-01-13 12:54:00,46.0,46.0,30.00,SSE,157,6.0,6.0,100,0.00,,,0.02,TxWx,2013-01-13 17:54:00,
2013-01-13 12:59:00,47.0,47.0,30.00,SSW,202,3.0,5.0,100,0.00,,,0.02,TxWx,2013-01-13 17:59:00,
2013-01-13 13:04:00,47.0,47.0,30.00,SE,135,1.0,2.0,100,0.00,,,0.02,TxWx,2013-01-13 18:04:00,
2013-01-13 13:09:00,47.0,47.0,30.00,South,180,6.0,9.0,100,0.00,,,0.02,TxWx,2013-01-13 18:09:00,
2013-01-13 13:14:00,48.0,48.0,29.99,ESE,112,3.0,9.0,100,0.00,,,0.02,TxWx,2013-01-13 18:14:00,
2013-01-13 13:19:00,48.0,48.0,29.98,SSE,157,6.0,8.0,100,0.00,,,0.02,TxWx,2013-01-13 18:19:00,
2013-01-13 13:24:00,48.0,48.0,29.97,SSE,157,6.0,10.0,100,0.00,,,0.02,TxWx,2013-01-13 18:24:00,
2013-01-13 13:29:00,48.0,48.0,29.98,ESE,112,3.0,8.0,100,0.00,,,0.02,TxWx,2013-01-13 18:29:00,
2013-01-13 13:34:00,48.0,48.0,29.98,SE,135,3.0,3.0,100,0.00,,,0.02,TxWx,2013-01-13 18:34:00,
2013-01-13 13:39:00,48.0,48.0,29.97,South,180,9.0,13.0,100,0.00,,,0.02,TxWx,2013-01-13 18:39:00,
2013-01-13 13:44:00,48.0,48.0,29.98,ESE,112,8.0,11.0,100,0.00,,,0.02,TxWx,2013-01-13 18:44:00,
2013-01-13 13:49:00,48.0,48.0,29.98,South,180,9.0,13.0,100,0.00,,,0.02,TxWx,2013-01-13 18:49:00,
2013-01-13 13:55:00,49.0,49.0,29.98,South,180,6.0,8.0,100,0.00,,,0.02,TxWx,2013-01-13 18:55:00,
2013-01-13 14:00:00,49.0,49.0,29.98,SSE,157,13.0,13.0,100,0.00,,,0.02,TxWx,2013-01-13 19:00:00,
2013-01-13 14:02:00,47.0,47.0,29.95,SSE,157,6.0,7.0,100,0.00,,,0.00,TxWx,2013-01-13 19:02:00,
2013-01-13 14:03:00,47.0,47.0,29.95,SSE,157,5.0,5.0,100,0.00,,,0.00,TxWx,2013-01-13 19:03:00,
2013-01-13 14:04:00,47.0,47.0,29.95,South,180,5.0,6.0,100,0.00,,,0.00,TxWx,2013-01-13 19:04:00,
2013-01-13 14:05:00,49.0,49.0,29.97,SSE,157,11.0,11.0,100,0.00,,,0.02,TxWx,2013-01-13 19:05:00,
2013-01-13 14:06:00,47.0,47.0,29.95,SSE,157,5.0,8.0,100,0.00,,,0.00,TxWx,2013-01-13 19:06:00,
2013-01-13 14:07:00,47.0,47.0,29.95,SE,135,5.0,6.0,100,0.00,,,0.00,TxWx,2013-01-13 19:07:00,
2013-01-13 14:10:00,49.0,49.0,29.97,SE,135,6.0,10.0,100,0.00,,,0.02,TxWx,2013-01-13 19:10:00,
2013-01-13 14:15:00,49.0,49.0,29.97,SSE,157,8.0,11.0,100,0.00,,,0.02,TxWx,2013-01-13 19:15:00,
2013-01-13 14:20:00,49.0,49.0,29.97,ESE,112,4.0,6.0,100,0.00,,,0.02,TxWx,2013-01-13 19:20:00,
2013-01-13 14:25:00,49.0,49.0,29.97,South,180,16.0,16.0,100,0.00,,,0.02,TxWx,2013-01-13 19:25:00,
2013-01-13 14:30:00,49.0,49.0,29.97,ESE,112,6.0,7.0,100,0.00,,,0.02,TxWx,2013-01-13 19:30:00,
2013-01-13 14:35:00,49.0,49.0,29.97,South,180,9.0,12.0,100,0.00,,,0.02,TxWx,2013-01-13 19:35:00,
2013-01-13 14:40:00,49.0,49.0,29.97,SSE,157,6.0,8.0,100,0.00,,,0.02,TxWx,2013-01-13 19:40:00,
2013-01-13 14:45:00,49.0,49.0,29.96,SSE,157,8.0,14.0,100,0.00,,,0.02,TxWx,2013-01-13 19:45:00,
2013-01-13 14:46:00,47.0,47.0,29.95,SSW,202,6.0,7.0,100,0.00,,,0.00,TxWx,2013-01-13 19:46:00,
2013-01-13 14:47:00,47.0,47.0,29.95,SE,135,9.0,11.0,100,0.00,,,0.00,TxWx,2013-01-13 19:47:00,
2013-01-13 14:50:00,49.0,49.0,29.96,SSE,157,6.0,6.0,100,0.00,,,0.02,TxWx,2013-01-13 19:50:00,
2013-01-13 14:55:00,49.0,49.0,29.96,South,180,17.0,17.0,100,0.00,,,0.02,TxWx,2013-01-13 19:55:00,
2013-01-13 14:59:00,47.0,47.0,29.95,South,180,8.0,9.0,100,0.00,,,0.00,TxWx,2013-01-13 19:59:00,
2013-01-13 15:00:00,49.0,49.0,29.96,SSE,157,10.0,13.0,100,0.00,,,0.02,TxWx,2013-01-13 20:00:00,
2013-01-13 15:01:00,47.0,47.0,29.95,South,180,11.0,11.0,100,0.00,,,0.00,TxWx,2013-01-13 20:01:00,
2013-01-13 15:04:00,47.0,47.0,29.95,SSE,157,1.0,2.0,100,0.00,,,0.00,TxWx,2013-01-13 20:04:00,
2013-01-13 15:05:00,47.0,47.0,29.95,South,180,2.0,3.0,100,0.00,,,0.00,TxWx,2013-01-13 20:05:00,
2013-01-13 15:06:00,49.0,49.0,29.95,SW,225,4.0,6.0,100,0.00,,,0.02,TxWx,2013-01-13 20:06:00,
2013-01-13 15:07:00,47.0,47.0,29.95,South,180,6.0,6.0,100,0.00,,,0.00,TxWx,2013-01-13 20:07:00,
2013-01-13 15:09:00,47.0,47.0,29.95,SE,135,3.0,5.0,100,0.00,,,0.00,TxWx,2013-01-13 20:09:00,
2013-01-13 15:10:00,47.0,47.0,29.95,SE,135,5.0,7.0,100,0.00,,,0.00,TxWx,2013-01-13 20:10:00,
2013-01-13 15:11:00,49.0,49.0,29.96,SSE,157,8.0,10.0,100,0.00,,,0.02,TxWx,2013-01-13 20:11:00,
2013-01-13 15:12:00,47.0,47.0,29.95,ESE,112,5.0,5.0,100,0.00,,,0.00,TxWx,2013-01-13 20:12:00,
2013-01-13 15:13:00,47.0,47.0,29.95,ESE,112,5.0,6.0,100,0.00,,,0.00,TxWx,2013-01-13 20:13:00,
2013-01-13 15:16:00,49.0,49.0,29.95,ESE,112,6.0,9.0,100,0.00,,,0.02,TxWx,2013-01-13 20:16:00,
2013-01-13 15:21:00,49.0,49.0,29.94,ESE,112,10.0,14.0,100,0.00,,,0.02,TxWx,2013-01-13 20:21:00,
2013-01-13 15:26:00,49.0,49.0,29.95,SE,135,8.0,9.0,100,0.00,,,0.02,TxWx,2013-01-13 20:26:00,
2013-01-13 15:31:00,49.0,49.0,29.95,East,90,6.0,13.0,100,0.00,,,0.02,TxWx,2013-01-13 20:31:00,
2013-01-13 15:36:00,49.0,49.0,29.94,SSE,157,8.0,10.0,100,0.00,,,0.02,TxWx,2013-01-13 20:36:00,
2013-01-13 15:41:00,49.0,49.0,29.96,SE,135,6.0,11.0,100,0.00,,,0.02,TxWx,2013-01-13 20:41:00,
2013-01-13 15:46:00,49.0,49.0,29.97,SE,135,7.0,10.0,100,0.00,,,0.02,TxWx,2013-01-13 20:46:00,
2013-01-13 15:51:00,49.0,49.0,29.96,South,180,9.0,11.0,100,0.00,,,0.02,TxWx,2013-01-13 20:51:00,
2013-01-13 15:56:00,49.0,49.0,29.96,South,180,10.0,14.0,100,0.00,,,0.02,TxWx,2013-01-13 20:56:00,
2013-01-13 16:01:00,49.0,49.0,29.96,South,180,5.0,5.0,100,0.00,,,0.02,TxWx,2013-01-13 21:01:00,
2013-01-13 16:06:00,49.0,49.0,29.96,SE,135,8.0,9.0,100,0.00,,,0.02,TxWx,2013-01-13 21:06:00,
2013-01-13 16:12:00,49.0,49.0,29.96,SSE,157,6.0,9.0,100,0.00,,,0.02,TxWx,2013-01-13 21:12:00,
2013-01-13 16:17:00,49.0,49.0,29.96,SSE,157,8.0,11.0,100,0.00,,,0.02,TxWx,2013-01-13 21:17:00,
2013-01-13 16:22:00,49.0,49.0,29.97,South,180,11.0,13.0,100,0.00,,,0.02,TxWx,2013-01-13 21:22:00,
2013-01-13 16:27:00,48.0,48.0,29.98,South,180,13.0,13.0,100,0.00,,,0.02,TxWx,2013-01-13 21:27:00,
2013-01-13 16:32:00,48.0,48.0,29.98,SSW,202,6.0,8.0,100,0.00,,,0.02,TxWx,2013-01-13 21:32:00,
2013-01-13 16:37:00,48.0,48.0,29.99,South,180,6.0,6.0,100,0.00,,,0.02,TxWx,2013-01-13 21:37:00,
2013-01-13 16:42:00,48.0,48.0,29.98,South,180,6.0,6.0,100,0.00,,,0.02,TxWx,2013-01-13 21:42:00,
2013-01-13 16:47:00,48.0,48.0,29.99,South,180,6.0,7.0,100,0.00,,,0.02,TxWx,2013-01-13 21:47:00,
2013-01-13 16:52:00,48.0,48.0,29.98,SSE,157,7.0,10.0,100,0.00,,,0.02,TxWx,2013-01-13 21:52:00,
2013-01-13 16:57:00,48.0,48.0,29.99,South,180,8.0,10.0,100,0.00,,,0.02,TxWx,2013-01-13 21:57:00,
2013-01-13 17:02:00,48.0,48.0,29.99,South,180,6.0,6.0,100,0.00,,,0.02,TxWx,2013-01-13 22:02:00,
2013-01-13 17:07:00,48.0,48.0,29.98,ESE,112,5.0,6.0,100,0.00,,,0.02,TxWx,2013-01-13 22:07:00,
2013-01-13 17:13:00,48.0,48.0,29.98,SSE,157,8.0,8.0,100,0.00,,,0.02,TxWx,2013-01-13 22:13:00,
2013-01-13 17:18:00,48.0,48.0,29.98,SSE,157,10.0,13.0,100,0.00,,,0.02,TxWx,2013-01-13 22:18:00,
2013-01-13 17:23:00,48.0,48.0,29.98,South,180,6.0,11.0,100,0.00,,,0.02,TxWx,2013-01-13 22:23:00,
2013-01-13 17:28:00,48.0,48.0,29.97,SE,135,5.0,6.0,100,0.00,,,0.02,TxWx,2013-01-13 22:28:00,
2013-01-13 17:33:00,49.0,49.0,29.98,SE,135,9.0,10.0,100,0.00,,,0.02,TxWx,2013-01-13 22:33:00,
2013-01-13 17:38:00,49.0,49.0,29.98,SSE,157,8.0,8.0,100,0.00,,,0.02,TxWx,2013-01-13 22:38:00,
2013-01-13 17:43:00,48.0,48.0,29.98,South,180,5.0,8.0,100,0.00,,,0.02,TxWx,2013-01-13 22:43:00,
2013-01-13 17:48:00,48.0,48.0,29.98,ESE,112,6.0,6.0,100,0.00,,,0.02,TxWx,2013-01-13 22:48:00,
2013-01-13 17:53:00,48.0,48.0,29.98,ESE,112,5.0,10.0,100,0.00,,,0.02,TxWx,2013-01-13 22:53:00,
2013-01-13 17:58:00,48.0,48.0,29.98,SE,135,3.0,7.0,100,0.00,,,0.02,TxWx,2013-01-13 22:58:00,
2013-01-13 18:03:00,48.0,48.0,29.98,East,90,11.0,15.0,100,0.00,,,0.02,TxWx,2013-01-13 23:03:00,
2013-01-13 18:08:00,48.0,48.0,29.99,South,180,5.0,7.0,100,0.00,,,0.02,TxWx,2013-01-13 23:08:00,
2013-01-13 18:14:00,48.0,48.0,29.99,SSE,157,6.0,11.0,100,0.00,,,0.02,TxWx,2013-01-13 23:14:00,
2013-01-13 18:19:00,48.0,48.0,29.99,ESE,112,8.0,8.0,100,0.00,,,0.02,TxWx,2013-01-13 23:19:00,
2013-01-13 18:24:00,48.0,48.0,29.99,South,180,11.0,11.0,100,0.00,,,0.02,TxWx,2013-01-13 23:24:00,
2013-01-13 18:29:00,48.0,48.0,29.99,ESE,112,5.0,6.0,100,0.00,,,0.02,TxWx,2013-01-13 23:29:00,
2013-01-13 18:34:00,48.0,48.0,29.99,SSE,157,4.0,8.0,100,0.00,,,0.02,TxWx,2013-01-13 23:34:00,
2013-01-13 18:39:00,48.0,48.0,30.00,SSE,157,5.0,6.0,100,0.00,,,0.02,TxWx,2013-01-13 23:39:00,
2013-01-13 18:44:00,48.0,48.0,30.00,South,180,6.0,6.0,100,0.00,,,0.02,TxWx,2013-01-13 23:44:00,
2013-01-13 18:49:00,48.0,48.0,30.01,South,180,7.0,12.0,100,0.00,,,0.02,TxWx,2013-01-13 23:49:00,
2013-01-13 18:54:00,48.0,48.0,30.01,South,180,10.0,13.0,100,0.00,,,0.02,TxWx,2013-01-13 23:54:00,
2013-01-13 18:59:00,48.0,48.0,30.00,South,180,7.0,13.0,100,0.00,,,0.02,TxWx,2013-01-13 23:59:00,
2013-01-13 19:04:00,47.0,47.0,30.00,SSE,157,8.0,9.0,100,0.00,,,0.02,TxWx,2013-01-14 00:04:00,
2013-01-13 19:09:00,47.0,47.0,30.01,South,180,9.0,9.0,100,0.00,,,0.02,TxWx,2013-01-14 00:09:00,
2013-01-13 19:14:00,47.0,47.0,30.01,South,180,8.0,9.0,100,0.00,,,0.02,TxWx,2013-01-14 00:14:00,
2013-01-13 19:20:00,47.0,48.0,30.02,SSE,157,6.0,6.0,100,0.00,,,0.02,TxWx,2013-01-14 00:20:00,
2013-01-13 19:25:00,47.0,47.0,30.01,ENE,67,6.0,6.0,100,0.00,,,0.02,TxWx,2013-01-14 00:25:00,
2013-01-13 19:30:00,47.0,47.0,30.00,SSE,157,6.0,6.0,100,0.00,,,0.02,TxWx,2013-01-14 00:30:00,
2013-01-13 19:35:00,47.0,47.0,30.00,SSW,202,5.0,6.0,100,0.00,,,0.02,TxWx,2013-01-14 00:35:00,
2013-01-13 19:40:00,47.0,47.0,29.99,SE,135,6.0,6.0,100,0.00,,,0.02,TxWx,2013-01-14 00:40:00,
2013-01-13 19:45:00,47.0,47.0,30.00,South,180,5.0,6.0,100,0.00,,,0.02,TxWx,2013-01-14 00:45:00,
2013-01-13 19:50:00,47.0,47.0,30.01,South,180,11.0,13.0,100,0.00,,,0.02,TxWx,2013-01-14 00:50:00,
2013-01-13 19:55:00,48.0,48.0,29.99,ESE,112,10.0,10.0,100,0.00,,,0.02,TxWx,2013-01-14 00:55:00,
2013-01-13 20:00:00,48.0,48.0,29.99,SSE,157,6.0,6.0,100,0.00,,,0.02,TxWx,2013-01-14 01:00:00,
2013-01-13 20:05:00,48.0,48.0,29.99,South,180,7.0,7.0,100,0.00,,,0.02,TxWx,2013-01-14 01:05:00,
2013-01-13 20:10:00,48.0,48.0,29.99,East,90,4.0,6.0,100,0.00,,,0.02,TxWx,2013-01-14 01:10:00,
2013-01-13 20:16:00,48.0,48.0,29.99,SSE,157,6.0,6.0,100,0.00,,,0.02,TxWx,2013-01-14 01:16:00,
2013-01-13 20:21:00,48.0,48.0,30.00,SE,135,10.0,12.0,100,0.00,,,0.02,TxWx,2013-01-14 01:21:00,
2013-01-13 20:26:00,48.0,48.0,29.99,SE,135,3.0,6.0,100,0.00,,,0.02,TxWx,2013-01-14 01:26:00,
2013-01-13 20:31:00,48.0,48.0,29.98,SSE,157,7.0,9.0,100,0.00,,,0.02,TxWx,2013-01-14 01:31:00,
2013-01-13 20:36:00,48.0,48.0,29.98,SSE,157,3.0,6.0,100,0.00,,,0.02,TxWx,2013-01-14 01:36:00,
2013-01-13 20:41:00,48.0,48.0,29.99,South,180,6.0,6.0,100,0.00,,,0.02,TxWx,2013-01-14 01:41:00,
2013-01-13 20:46:00,48.0,48.0,29.99,South,180,10.0,10.0,100,0.00,,,0.02,TxWx,2013-01-14 01:46:00,
2013-01-13 20:51:00,48.0,48.0,29.98,SSE,157,13.0,13.0,100,0.00,,,0.02,TxWx,2013-01-14 01:51:00,
2013-01-13 20:56:00,48.0,48.0,29.98,South,180,6.0,9.0,100,0.00,,,0.02,TxWx,2013-01-14 01:56:00,
2013-01-13 21:01:00,48.0,48.0,29.99,ESE,112,5.0,8.0,100,0.00,,,0.02,TxWx,2013-01-14 02:01:00,
2013-01-13 21:06:00,48.0,48.0,29.98,SSE,157,5.0,6.0,100,0.00,,,0.02,TxWx,2013-01-14 02:06:00,
2013-01-13 21:11:00,48.0,48.0,29.98,South,180,4.0,4.0,100,0.00,,,0.02,TxWx,2013-01-14 02:11:00,
2013-01-13 21:16:00,48.0,48.0,29.98,SSE,157,8.0,8.0,100,0.00,,,0.02,TxWx,2013-01-14 02:16:00,
2013-01-13 21:21:00,48.0,48.0,29.97,SSE,157,10.0,10.0,100,0.00,,,0.02,TxWx,2013-01-14 02:21:00,
2013-01-13 21:26:00,48.0,48.0,29.97,SE,135,8.0,11.0,100,0.00,,,0.02,TxWx,2013-01-14 02:26:00,
2013-01-13 21:32:00,48.0,48.0,29.97,South,180,8.0,10.0,100,0.00,,,0.02,TxWx,2013-01-14 02:32:00,
2013-01-13 21:37:00,48.0,48.0,29.97,South,180,8.0,8.0,100,0.00,,,0.02,TxWx,2013-01-14 02:37:00,
2013-01-13 21:42:00,48.0,48.0,29.98,SSE,157,5.0,7.0,100,0.00,,,0.02,TxWx,2013-01-14 02:42:00,
2013-01-13 21:47:00,48.0,48.0,29.98,SSE,157,13.0,13.0,100,0.00,,,0.02,TxWx,2013-01-14 02:47:00,
2013-01-13 21:52:00,48.0,48.0,29.97,South,180,11.0,11.0,100,0.00,,,0.02,TxWx,2013-01-14 02:52:00,
2013-01-13 21:57:00,48.0,48.0,29.97,ESE,112,8.0,8.0,100,0.00,,,0.02,TxWx,2013-01-14 02:57:00,
2013-01-13 22:02:00,48.0,48.0,29.97,SSE,157,8.0,12.0,100,0.00,,,0.02,TxWx,2013-01-14 03:02:00,
2013-01-13 22:07:00,48.0,48.0,29.97,ENE,67,6.0,12.0,100,0.00,,,0.02,TxWx,2013-01-14 03:07:00,
2013-01-13 22:12:00,48.0,48.0,29.97,SSE,157,7.0,7.0,100,0.00,,,0.02,TxWx,2013-01-14 03:12:00,
2013-01-13 22:17:00,48.0,48.0,29.97,South,180,3.0,5.0,100,0.00,,,0.02,TxWx,2013-01-14 03:17:00,
2013-01-13 22:22:00,48.0,48.0,29.97,South,180,9.0,9.0,100,0.00,,,0.02,TxWx,2013-01-14 03:22:00,
2013-01-13 22:27:00,48.0,48.0,29.96,South,180,8.0,8.0,100,0.00,,,0.02,TxWx,2013-01-14 03:27:00,
2013-01-13 22:32:00,48.0,48.0,29.96,South,180,5.0,6.0,100,0.00,,,0.02,TxWx,2013-01-14 03:32:00,
2013-01-13 22:37:00,48.0,48.0,29.96,South,180,5.0,6.0,100,0.00,,,0.02,TxWx,2013-01-14 03:37:00,
2013-01-13 22:43:00,48.0,48.0,29.97,SSE,157,7.0,10.0,100,0.00,,,0.02,TxWx,2013-01-14 03:43:00,
2013-01-13 22:48:00,48.0,48.0,29.97,SE,135,7.0,8.0,100,0.00,,,0.02,TxWx,2013-01-14 03:48:00,
2013-01-13 22:53:00,48.0,48.0,29.97,South,180,6.0,6.0,100,0.00,,,0.02,TxWx,2013-01-14 03:53:00,
2013-01-13 22:58:00,48.0,48.0,29.97,South,180,6.0,10.0,100,0.00,,,0.02,TxWx,2013-01-14 03:58:00,
2013-01-13 23:03:00,48.0,48.0,29.97,SE,135,5.0,5.0,100,0.00,,,0.02,TxWx,2013-01-14 04:03:00,
2013-01-13 23:08:00,48.0,48.0,29.97,ESE,112,6.0,9.0,100,0.00,,,0.02,TxWx,2013-01-14 04:08:00,
2013-01-13 23:13:00,48.0,48.0,29.97,South,180,4.0,5.0,100,0.00,,,0.02,TxWx,2013-01-14 04:13:00,
2013-01-13 23:18:00,48.0,48.0,29.97,SSE,157,8.0,9.0,100,0.00,,,0.02,TxWx,2013-01-14 04:18:00,
2013-01-13 23:23:00,48.0,48.0,29.96,South,180,7.0,7.0,100,0.00,,,0.02,TxWx,2013-01-14 04:23:00,
2013-01-13 23:28:00,48.0,48.0,29.96,SSE,157,3.0,3.0,100,0.00,,,0.02,TxWx,2013-01-14 04:28:00,
2013-01-13 23:33:00,48.0,48.0,29.96,SE,135,6.0,8.0,100,0.00,,,0.02,TxWx,2013-01-14 04:33:00,
2013-01-13 23:38:00,48.0,48.0,29.96,South,180,7.0,7.0,100,0.00,,,0.02,TxWx,2013-01-14 04:38:00,
2013-01-13 23:44:00,48.0,48.0,29.96,ESE,112,5.0,5.0,100,0.00,,,0.02,TxWx,2013-01-14 04:44:00,
2013-01-13 23:49:00,48.0,48.0,29.96,SSW,202,5.0,6.0,100,0.00,,,0.02,TxWx,2013-01-14 04:49:00,
2013-01-13 23:54:00,47.0,47.0,29.96,South,180,8.0,8.0,100,0.00,,,0.02,TxWx,2013-01-14 04:54:00,
2013-01-13 23:59:00,47.0,47.0,29.96,SSW,202,8.0,11.0,100,0.00,,,0.02,TxWx,2013-01-14 04:59:00,